Location: Unnamed
(42.1164°N, 2.7652°E)
Time: 20:43:58
(UTC+02:00)

ISS - Pass Details

Date: 10 May 2021
Orbit: 417 x 422 km, 51.6° (Epoch: 14 June)

Event Time Altitude Azimuth Distance (km) Brightness Sun altitude
Exits shadow 04:21:48 - 307° (NW) 1,994 -0.3 -20.2°
Reaches altitude 10° 04:23:23 10° 323° (NW) 1,509 -0.8 -20.0°
Maximum altitude 04:25:39 17° 5° (N) 1,170 -0.8 -19.7°
Drops below altitude 10° 04:27:55 10° 47° (NE) 1,510 0.3 -19.5°
Sets 04:30:35 0° 69° (ENE) 2,375 1.2 -19.1°
